Regional Weather Roundup
Issued by NWS

Home | Current Version | Previous Version | Text Only | Print | Product List | Glossary Off
Versions: 1 2 3 4 5 6 7 8 9 10 11 12 13 14 15 16 17 18 19 20 21 22 23 24 25 26 27 28 29 30 31 32 33 34 35 36 37 38 39 40 41 42 43 44 45 46 47 48 49 50

408
ASUS44 KMEG 302200
RWRTN
TENNESSEE HOURLY STATE WEATHER ROUNDUP
NATIONAL WEATHER SERVICE MEMPHIS TN
500 PM CDT FRI SEP 30 2016

TNZ002-004-019-021-049-052-054-088>092-302300-
WEST TENNESSEE

CITY           SKY/WX    TMP DP  RH WIND       PRES   REMARKS
MEMPHIS INTL   MOSUNNY   75  53  46 VRB3      30.05S
NWS MEMPHIS      N/A     74 N/A N/A MISG        N/A
JACKSON        CLOUDY   N/A N/A N/A W6        30.04S
DYERSBURG      CLOUDY   N/A N/A N/A MISG        N/A
PARIS          CLOUDY    61  55  82 W6        30.04S
$$

TNZ008-025-027-028-033-062-065-066-302300-
NORTH MIDDLE TENNESSEE

CITY           SKY/WX    TMP DP  RH WIND       PRES   REMARKS
NASHVILLE      CLOUDY    66  54  65 S7        30.03S
CLARKSVILLE    PTSUNNY   63  58  83 W3        30.02S
SMYRNA         CLOUDY    66  53  63 S3        30.04S
COOKEVILLE     PTSUNNY   64  54  68 SW5       30.04S
CROSSVILLE     MOSUNNY   63  48  58 NW6       30.06R
$$

TNZ061-075-076-078-094-096-097-302300-
SOUTH MIDDLE TENNESSEE

CITY           SKY/WX    TMP DP  RH WIND       PRES   REMARKS
SHELBYVILLE    PTSUNNY   70  54  56 SW10      30.05S
$$

TNZ017-018-042-046-047-302300-
NORTHEAST TENNESSEE

CITY           SKY/WX    TMP DP  RH WIND       PRES   REMARKS
TRI CITIES     MOSUNNY   68  51  54 SW5       30.01S
$$

TNZ012-013-036-069-073-074-302300-
CENTRAL EAST TENNESSEE

CITY           SKY/WX    TMP DP  RH WIND       PRES   REMARKS
KNOXVILLE      MOSUNNY   71  44  37 SW12      30.01R
OAK RIDGE      MOSUNNY   70  45  40 S6        30.03S
GATLINBURG     PTSUNNY   70  43  37 W8        30.01R
$$

TNZ083-085-099-302300-
SOUTHEAST TENNESSEE

CITY           SKY/WX    TMP DP  RH WIND       PRES   REMARKS
CHATTANOOGA    PTSUNNY   71  45  39 W10       30.03R
$$

SKY/WX REPORTED AS FAIR MEANS FEW OR NO CLOUDS BELOW
12 THOUSAND FEET.





USA.gov is the U.S. government's official web portal to all federal, state and local government web resources and services.